User: anonymous   Login
Location: ???????
(55.3754°N, 39.3545°E)
Time: 19:39:13
(UTC+00:00)
Language:

Cosmos 44 - Orbit

View from above orbital plane
View from above orbital plane
View from above satellite
View from above satellite

Ground track
Ground track

The orbit is defined by the following mean orbital elements,

1 00876U          26162.59783633 +.00000000 +00000-0 +30412-4 0 00009
2 00876  65.0606 342.2262 0151892 265.1768  93.1977 14.65732681    07
Epoch (UTC): 11 June 2026 14:20:53
Eccentricity: 0.0151892
inclination: 65.0606°
perigee height: 568 km
apogee height: 782 km
right ascension of ascending node: 342.2262°
argument of perigee: 265.1768°
revolutions per day: 14.65732681
mean anomaly at epoch: 93.1977°

The dashed part of the orbit path shows where the satellite is in the earth's shadow,  

DLR